Time,TemperatureF,DewpointF,PressureIn,WindDirection,WindDirectionDegrees,WindSpeedMPH,WindSpeedGustMPH,Humidity,HourlyPrecipIn,Conditions,Clouds,dailyrainin,SoftwareType,DateUTC
2013-08-18 00:01:00,54.2,52.8,30.35,North,4,0.0,0.0,95,0.00,,,0.00,Wunderground v.1.15,2013-08-18 04:01:00,
2013-08-18 00:02:00,54.2,52.8,30.35,North,4,0.0,0.0,95,0.00,,,0.00,Wunderground v.1.15,2013-08-18 04:02:00,
2013-08-18 00:03:00,54.2,52.8,30.35,North,4,0.0,0.0,95,0.00,,,0.00,Wunderground v.1.15,2013-08-18 04:03:00,
2013-08-18 00:05:00,54.1,53.0,30.35,North,4,0.0,0.0,96,0.00,,,0.00,Wunderground v.1.15,2013-08-18 04:05:00,
2013-08-18 00:07:00,54.0,52.9,30.35,North,4,0.0,0.0,96,0.00,,,0.00,Wunderground v.1.15,2013-08-18 04:07:00,
2013-08-18 00:12:00,53.9,52.8,30.35,NNW,347,0.0,1.0,96,0.00,,,0.00,Wunderground v.1.15,2013-08-18 04:12:00,
2013-08-18 00:18:00,53.8,52.7,30.36,NNW,346,0.0,1.0,96,0.00,,,0.00,Wunderground v.1.15,2013-08-18 04:18:00,
2013-08-18 00:23:00,53.7,52.6,30.36,NNW,346,0.0,0.0,96,0.00,,,0.00,Wunderground v.1.15,2013-08-18 04:23:00,
2013-08-18 00:29:00,53.5,52.4,30.36,NNW,346,0.0,1.0,96,0.00,,,0.00,Wunderground v.1.15,2013-08-18 04:29:00,
2013-08-18 00:35:00,53.4,52.3,30.37,NNW,345,0.0,1.0,96,0.00,,,0.00,Wunderground v.1.15,2013-08-18 04:35:00,
2013-08-18 00:41:00,53.3,52.2,30.37,NNW,345,0.0,1.0,96,0.00,,,0.00,Wunderground v.1.15,2013-08-18 04:41:00,
2013-08-18 00:47:00,53.2,52.1,30.36,NNW,340,0.0,1.0,96,0.00,,,0.00,Wunderground v.1.15,2013-08-18 04:47:00,
2013-08-18 00:52:00,53.0,51.9,30.36,West,264,0.0,1.0,96,0.00,,,0.00,Wunderground v.1.15,2013-08-18 04:52:00,
2013-08-18 00:58:00,52.9,51.8,30.36,WNW,286,0.0,1.0,96,0.00,,,0.00,Wunderground v.1.15,2013-08-18 04:58:00,
2013-08-18 01:04:00,52.8,51.7,30.36,WNW,286,0.0,0.0,96,0.00,,,0.00,Wunderground v.1.15,2013-08-18 05:04:00,
2013-08-18 01:10:00,52.8,52.0,30.36,North,1,0.0,0.0,97,0.00,,,0.00,Wunderground v.1.15,2013-08-18 05:10:00,
2013-08-18 01:15:00,52.7,51.9,30.36,NNW,343,0.0,0.0,97,0.00,,,0.00,Wunderground v.1.15,2013-08-18 05:15:00,
2013-08-18 01:21:00,52.7,51.9,30.36,NNW,343,0.0,0.0,97,0.00,,,0.00,Wunderground v.1.15,2013-08-18 05:21:00,
2013-08-18 01:27:00,52.6,51.8,30.36,NNW,343,0.0,0.0,97,0.00,,,0.00,Wunderground v.1.15,2013-08-18 05:27:00,
2013-08-18 01:32:00,52.6,51.8,30.36,NNW,342,0.0,1.0,97,0.00,,,0.00,Wunderground v.1.15,2013-08-18 05:32:00,
2013-08-18 01:38:00,52.5,51.7,30.36,NNW,343,0.0,1.0,97,0.00,,,0.00,Wunderground v.1.15,2013-08-18 05:38:00,
2013-08-18 01:44:00,52.6,51.8,30.36,NNW,342,0.0,1.0,97,0.00,,,0.00,Wunderground v.1.15,2013-08-18 05:44:00,
2013-08-18 01:49:00,52.5,51.7,30.36,NNW,343,0.0,1.0,97,0.00,,,0.00,Wunderground v.1.15,2013-08-18 05:49:00,
2013-08-18 01:55:00,52.5,51.7,30.36,NNW,342,0.0,1.0,97,0.00,,,0.00,Wunderground v.1.15,2013-08-18 05:55:00,
2013-08-18 02:00:00,52.5,51.7,30.36,NNW,342,0.0,0.0,97,0.00,,,0.00,Wunderground v.1.15,2013-08-18 06:00:00,
2013-08-18 02:05:00,52.5,51.7,30.36,NNW,343,0.0,0.0,97,0.00,,,0.00,Wunderground v.1.15,2013-08-18 06:05:00,
2013-08-18 02:11:00,52.5,51.7,30.36,NW,309,0.0,0.0,97,0.00,,,0.00,Wunderground v.1.15,2013-08-18 06:11:00,
2013-08-18 02:17:00,52.6,51.8,30.36,NW,311,0.0,0.0,97,0.00,,,0.00,Wunderground v.1.15,2013-08-18 06:17:00,
2013-08-18 02:22:00,52.6,51.8,30.36,WNW,298,0.0,0.0,97,0.00,,,0.00,Wunderground v.1.15,2013-08-18 06:22:00,
2013-08-18 02:28:00,52.5,51.7,30.36,North,11,0.0,1.0,97,0.00,,,0.00,Wunderground v.1.15,2013-08-18 06:28:00,
2013-08-18 02:34:00,52.4,51.6,30.35,NNW,330,0.0,1.0,97,0.00,,,0.00,Wunderground v.1.15,2013-08-18 06:34:00,
2013-08-18 02:39:00,52.5,51.7,30.36,NNW,335,0.0,1.0,97,0.00,,,0.00,Wunderground v.1.15,2013-08-18 06:39:00,
2013-08-18 02:45:00,52.5,51.7,30.36,NNW,334,0.0,1.0,97,0.00,,,0.00,Wunderground v.1.15,2013-08-18 06:45:00,
2013-08-18 02:51:00,52.5,51.7,30.35,NNW,335,0.0,1.0,97,0.00,,,0.00,Wunderground v.1.15,2013-08-18 06:51:00,
2013-08-18 02:57:00,52.6,51.8,30.35,NNW,333,0.0,1.0,97,0.00,,,0.00,Wunderground v.1.15,2013-08-18 06:57:00,
2013-08-18 03:02:00,52.6,51.8,30.35,NNW,333,0.0,0.0,97,0.00,,,0.00,Wunderground v.1.15,2013-08-18 07:02:00,
2013-08-18 03:08:00,52.5,51.4,30.35,WNW,303,0.0,1.0,96,0.00,,,0.00,Wunderground v.1.15,2013-08-18 07:08:00,
2013-08-18 03:13:00,52.4,51.3,30.35,NW,323,0.0,1.0,96,0.00,,,0.00,Wunderground v.1.15,2013-08-18 07:13:00,
2013-08-18 03:19:00,52.4,51.3,30.35,West,280,0.0,1.0,96,0.00,,,0.00,Wunderground v.1.15,2013-08-18 07:19:00,
2013-08-18 03:25:00,52.4,51.3,30.35,West,280,0.0,0.0,96,0.00,,,0.00,Wunderground v.1.15,2013-08-18 07:25:00,
2013-08-18 03:31:00,52.4,51.3,30.35,NW,315,0.0,1.0,96,0.00,,,0.00,Wunderground v.1.15,2013-08-18 07:31:00,
2013-08-18 03:36:00,52.4,51.3,30.35,NW,315,0.0,1.0,96,0.00,,,0.00,Wunderground v.1.15,2013-08-18 07:36:00,
2013-08-18 03:42:00,52.4,51.6,30.35,WNW,297,0.0,1.0,97,0.00,,,0.00,Wunderground v.1.15,2013-08-18 07:42:00,
2013-08-18 03:48:00,52.4,51.3,30.35,WNW,289,0.0,1.0,96,0.00,,,0.00,Wunderground v.1.15,2013-08-18 07:48:00,
2013-08-18 03:54:00,52.1,51.0,30.35,SW,232,0.0,1.0,96,0.00,,,0.00,Wunderground v.1.15,2013-08-18 07:54:00,
2013-08-18 04:00:00,52.0,50.9,30.35,NW,320,0.0,0.0,96,0.00,,,0.00,Wunderground v.1.15,2013-08-18 08:00:00,
2013-08-18 04:06:00,52.0,50.9,30.35,WNW,294,0.0,0.0,96,0.00,,,0.00,Wunderground v.1.15,2013-08-18 08:06:00,
2013-08-18 04:12:00,51.9,50.8,30.35,SW,234,0.0,0.0,96,0.00,,,0.00,Wunderground v.1.15,2013-08-18 08:12:00,
2013-08-18 04:18:00,51.8,50.7,30.35,NW,321,0.0,0.0,96,0.00,,,0.00,Wunderground v.1.15,2013-08-18 08:18:00,
2013-08-18 04:24:00,51.7,50.6,30.36,West,269,0.0,1.0,96,0.00,,,0.00,Wunderground v.1.15,2013-08-18 08:24:00,
2013-08-18 04:29:00,51.8,51.0,30.36,West,273,0.0,1.0,97,0.00,,,0.00,Wunderground v.1.15,2013-08-18 08:29:00,
2013-08-18 04:35:00,51.8,51.0,30.35,WNW,291,0.0,1.0,97,0.00,,,0.00,Wunderground v.1.15,2013-08-18 08:35:00,
2013-08-18 04:41:00,51.7,50.9,30.35,NNW,328,0.0,1.0,97,0.00,,,0.00,Wunderground v.1.15,2013-08-18 08:41:00,
2013-08-18 04:47:00,51.5,50.4,30.35,NNW,329,0.0,1.0,96,0.00,,,0.00,Wunderground v.1.15,2013-08-18 08:47:00,
2013-08-18 04:52:00,51.4,50.6,30.35,NW,313,0.0,1.0,97,0.00,,,0.00,Wunderground v.1.15,2013-08-18 08:52:00,
2013-08-18 04:58:00,51.4,50.6,30.35,NW,314,0.0,1.0,97,0.00,,,0.00,Wunderground v.1.15,2013-08-18 08:58:00,
2013-08-18 05:03:00,51.4,50.6,30.35,NW,315,0.0,0.0,97,0.00,,,0.00,Wunderground v.1.15,2013-08-18 09:03:00,
2013-08-18 05:09:00,51.3,50.5,30.35,NW,314,0.0,0.0,97,0.00,,,0.00,Wunderground v.1.15,2013-08-18 09:09:00,
2013-08-18 05:15:00,51.3,50.5,30.35,NNW,333,0.0,1.0,97,0.00,,,0.00,Wunderground v.1.15,2013-08-18 09:15:00,
2013-08-18 05:21:00,51.2,50.4,30.35,WNW,291,0.0,0.0,97,0.00,,,0.00,Wunderground v.1.15,2013-08-18 09:21:00,
2013-08-18 05:26:00,51.2,50.4,30.35,WNW,291,0.0,1.0,97,0.00,,,0.00,Wunderground v.1.15,2013-08-18 09:26:00,
2013-08-18 05:32:00,51.2,50.4,30.35,NNW,337,0.0,1.0,97,0.00,,,0.00,Wunderground v.1.15,2013-08-18 09:32:00,
2013-08-18 05:37:00,51.2,50.4,30.35,NE,37,0.0,1.0,97,0.00,,,0.00,Wunderground v.1.15,2013-08-18 09:37:00,
2013-08-18 05:43:00,51.2,50.4,30.35,NE,37,0.0,1.0,97,0.00,,,0.00,Wunderground v.1.15,2013-08-18 09:43:00,
2013-08-18 05:48:00,51.1,50.3,30.36,WNW,298,0.0,1.0,97,0.00,,,0.00,Wunderground v.1.15,2013-08-18 09:48:00,
2013-08-18 05:54:00,51.2,50.4,30.36,WNW,298,0.0,1.0,97,0.00,,,0.00,Wunderground v.1.15,2013-08-18 09:54:00,
2013-08-18 06:00:00,51.2,50.4,30.36,WNW,298,0.0,0.0,97,0.00,,,0.00,Wunderground v.1.15,2013-08-18 10:00:00,
2013-08-18 06:06:00,51.2,50.4,30.35,WNW,298,0.0,0.0,97,0.00,,,0.00,Wunderground v.1.15,2013-08-18 10:06:00,
2013-08-18 06:11:00,51.2,50.4,30.36,WNW,298,0.0,0.0,97,0.00,,,0.00,Wunderground v.1.15,2013-08-18 10:11:00,
2013-08-18 06:17:00,51.2,50.4,30.36,WNW,298,0.0,0.0,97,0.00,,,0.00,Wunderground v.1.15,2013-08-18 10:17:00,
2013-08-18 06:23:00,51.2,50.4,30.36,NW,316,0.0,1.0,97,0.00,,,0.00,Wunderground v.1.15,2013-08-18 10:23:00,
2013-08-18 06:28:00,51.2,50.4,30.36,NW,323,0.0,1.0,97,0.00,,,0.00,Wunderground v.1.15,2013-08-18 10:28:00,
2013-08-18 06:34:00,51.2,50.4,30.36,NNW,328,0.0,1.0,97,0.00,,,0.00,Wunderground v.1.15,2013-08-18 10:34:00,
2013-08-18 06:40:00,51.1,50.3,30.36,WSW,253,0.0,1.0,97,0.00,,,0.00,Wunderground v.1.15,2013-08-18 10:40:00,
2013-08-18 06:45:00,51.2,50.4,30.36,SW,231,0.0,1.0,97,0.00,,,0.00,Wunderground v.1.15,2013-08-18 10:45:00,
2013-08-18 06:51:00,51.0,50.2,30.36,NW,311,0.0,1.0,97,0.00,,,0.00,Wunderground v.1.15,2013-08-18 10:51:00,
2013-08-18 06:57:00,51.0,50.2,30.36,WSW,249,0.0,1.0,97,0.00,,,0.00,Wunderground v.1.15,2013-08-18 10:57:00,
2013-08-18 07:03:00,51.1,50.3,30.36,WSW,249,0.0,0.0,97,0.00,,,0.00,Wunderground v.1.15,2013-08-18 11:03:00,
2013-08-18 07:08:00,51.1,50.3,30.36,WSW,249,0.0,0.0,97,0.00,,,0.00,Wunderground v.1.15,2013-08-18 11:08:00,
2013-08-18 07:14:00,51.2,50.4,30.35,WSW,252,0.0,0.0,97,0.00,,,0.00,Wunderground v.1.15,2013-08-18 11:14:00,
2013-08-18 07:20:00,51.2,50.4,30.36,WSW,252,0.0,0.0,97,0.00,,,0.00,Wunderground v.1.15,2013-08-18 11:20:00,
2013-08-18 07:25:00,51.3,50.5,30.35,WSW,257,0.0,0.0,97,0.00,,,0.00,Wunderground v.1.15,2013-08-18 11:25:00,
2013-08-18 07:31:00,51.4,50.6,30.35,WSW,257,0.0,1.0,97,0.00,,,0.00,Wunderground v.1.15,2013-08-18 11:31:00,
2013-08-18 07:37:00,51.5,50.7,30.36,West,278,0.0,1.0,97,0.00,,,0.00,Wunderground v.1.15,2013-08-18 11:37:00,
2013-08-18 07:42:00,51.7,50.9,30.35,SSW,197,0.0,1.0,97,0.00,,,0.00,Wunderground v.1.15,2013-08-18 11:42:00,
2013-08-18 07:48:00,51.7,50.9,30.36,WSW,245,0.0,1.0,97,0.00,,,0.00,Wunderground v.1.15,2013-08-18 11:48:00,
2013-08-18 07:53:00,52.0,51.2,30.36,WSW,242,0.0,1.0,97,0.00,,,0.00,Wunderground v.1.15,2013-08-18 11:53:00,
2013-08-18 07:59:00,52.1,51.3,30.36,NE,41,0.0,1.0,97,0.00,,,0.00,Wunderground v.1.15,2013-08-18 11:59:00,
2013-08-18 08:04:00,52.2,51.4,30.36,NNE,30,0.0,2.0,97,0.00,,,0.00,Wunderground v.1.15,2013-08-18 12:04:00,
2013-08-18 08:10:00,52.4,51.6,30.36,SW,217,0.0,0.0,97,0.00,,,0.00,Wunderground v.1.15,2013-08-18 12:10:00,
2013-08-18 08:16:00,52.8,52.0,30.36,NE,39,0.0,1.0,97,0.00,,,0.00,Wunderground v.1.15,2013-08-18 12:16:00,
2013-08-18 08:22:00,52.8,51.7,30.37,NNE,33,1.0,1.0,96,0.00,,,0.00,Wunderground v.1.15,2013-08-18 12:22:00,
2013-08-18 08:27:00,53.1,51.7,30.36,NE,39,1.0,1.0,95,0.00,,,0.00,Wunderground v.1.15,2013-08-18 12:27:00,
2013-08-18 08:33:00,53.3,51.9,30.36,NE,39,0.0,1.0,95,0.00,,,0.00,Wunderground v.1.15,2013-08-18 12:33:00,
2013-08-18 08:39:00,53.4,52.0,30.36,NE,39,0.0,1.0,95,0.00,,,0.00,Wunderground v.1.15,2013-08-18 12:39:00,
2013-08-18 08:44:00,53.9,52.5,30.36,NNW,348,0.0,1.0,95,0.00,,,0.00,Wunderground v.1.15,2013-08-18 12:44:00,
2013-08-18 08:50:00,54.2,52.5,30.36,North,352,0.0,1.0,94,0.00,,,0.00,Wunderground v.1.15,2013-08-18 12:50:00,
2013-08-18 08:56:00,54.5,52.5,30.36,North,352,0.0,1.0,93,0.00,,,0.00,Wunderground v.1.15,2013-08-18 12:56:00,
2013-08-18 09:02:00,55.3,53.0,30.35,North,353,0.0,0.0,92,0.00,,,0.00,Wunderground v.1.15,2013-08-18 13:02:00,
2013-08-18 09:08:00,55.9,53.0,30.35,West,264,0.0,0.0,90,0.00,,,0.00,Wunderground v.1.15,2013-08-18 13:08:00,
2013-08-18 09:13:00,56.2,53.3,30.35,West,271,0.0,0.0,90,0.00,,,0.00,Wunderground v.1.15,2013-08-18 13:13:00,
2013-08-18 09:19:00,56.7,53.5,30.35,NE,40,0.0,1.0,89,0.00,,,0.00,Wunderground v.1.15,2013-08-18 13:19:00,
2013-08-18 09:24:00,57.2,53.7,30.35,South,184,0.0,2.0,88,0.00,,,0.00,Wunderground v.1.15,2013-08-18 13:24:00,
2013-08-18 09:30:00,57.9,54.1,30.35,SSW,205,0.0,0.0,87,0.00,,,0.00,Wunderground v.1.15,2013-08-18 13:30:00,
2013-08-18 09:36:00,58.4,54.2,30.35,SSE,154,0.0,2.0,86,0.00,,,0.00,Wunderground v.1.15,2013-08-18 13:36:00,
2013-08-18 09:42:00,59.1,54.6,30.35,South,179,0.0,2.0,85,0.00,,,0.00,Wunderground v.1.15,2013-08-18 13:42:00,
2013-08-18 09:48:00,59.9,54.7,30.35,ENE,72,0.0,2.0,83,0.00,,,0.00,Wunderground v.1.15,2013-08-18 13:48:00,
2013-08-18 09:53:00,60.1,54.9,30.35,ENE,58,0.0,2.0,83,0.00,,,0.00,Wunderground v.1.15,2013-08-18 13:53:00,
2013-08-18 09:59:00,61.1,55.6,30.35,SSW,200,0.0,2.0,82,0.00,,,0.00,Wunderground v.1.15,2013-08-18 13:59:00,
2013-08-18 10:05:00,61.7,55.8,30.35,SSW,204,0.0,1.0,81,0.00,,,0.00,Wunderground v.1.15,2013-08-18 14:05:00,
2013-08-18 10:11:00,62.2,56.3,30.35,SW,215,0.0,0.0,81,0.00,,,0.00,Wunderground v.1.15,2013-08-18 14:11:00,
2013-08-18 10:16:00,63.6,56.6,30.35,SSW,201,0.0,0.0,78,0.00,,,0.00,Wunderground v.1.15,2013-08-18 14:16:00,
2013-08-18 10:22:00,64.1,56.4,30.34,ESE,112,0.0,1.0,76,0.00,,,0.00,Wunderground v.1.15,2013-08-18 14:22:00,
2013-08-18 10:27:00,64.9,56.8,30.34,SSW,198,0.0,1.0,75,0.00,,,0.00,Wunderground v.1.15,2013-08-18 14:27:00,
2013-08-18 10:33:00,65.9,57.0,30.34,SSW,195,0.0,2.0,73,0.00,,,0.00,Wunderground v.1.15,2013-08-18 14:33:00,
2013-08-18 10:39:00,66.9,57.6,30.34,NE,56,0.0,2.0,72,0.00,,,0.00,Wunderground v.1.15,2013-08-18 14:39:00,
2013-08-18 10:45:00,67.1,58.2,30.34,ENE,75,0.0,2.0,73,0.00,,,0.00,Wunderground v.1.15,2013-08-18 14:45:00,
2013-08-18 10:50:00,67.0,57.3,30.34,WSW,252,0.0,2.0,71,0.00,,,0.00,Wunderground v.1.15,2013-08-18 14:50:00,
2013-08-18 10:56:00,67.8,58.4,30.34,SSE,158,0.0,2.0,72,0.00,,,0.00,Wunderground v.1.15,2013-08-18 14:56:00,
2013-08-18 11:02:00,68.3,58.5,30.34,WSW,243,0.0,0.0,71,0.00,,,0.00,Wunderground v.1.15,2013-08-18 15:02:00,
2013-08-18 11:08:00,69.0,58.8,30.33,SSW,197,0.0,0.0,70,0.00,,,0.00,Wunderground v.1.15,2013-08-18 15:08:00,
2013-08-18 11:13:00,69.9,58.9,30.33,SE,137,0.0,0.0,68,0.00,,,0.00,Wunderground v.1.15,2013-08-18 15:13:00,
2013-08-18 11:19:00,70.4,59.7,30.33,SE,146,0.0,1.0,69,0.00,,,0.00,Wunderground v.1.15,2013-08-18 15:19:00,
2013-08-18 11:25:00,70.8,58.9,30.33,WSW,253,0.0,1.0,66,0.00,,,0.00,Wunderground v.1.15,2013-08-18 15:25:00,
2013-08-18 11:31:00,71.5,60.0,30.33,WSW,240,0.0,2.0,67,0.00,,,0.00,Wunderground v.1.15,2013-08-18 15:31:00,
2013-08-18 11:37:00,72.2,59.8,30.32,ESE,103,0.0,2.0,65,0.00,,,0.00,Wunderground v.1.15,2013-08-18 15:37:00,
2013-08-18 11:42:00,72.5,59.2,30.32,West,266,0.0,2.0,63,0.00,,,0.00,Wunderground v.1.15,2013-08-18 15:42:00,
2013-08-18 11:48:00,72.7,59.8,30.32,South,183,0.0,2.0,64,0.00,,,0.00,Wunderground v.1.15,2013-08-18 15:48:00,
2013-08-18 11:54:00,73.4,58.7,30.31,ESE,122,0.0,2.0,60,0.00,,,0.00,Wunderground v.1.15,2013-08-18 15:54:00,
2013-08-18 12:00:00,73.4,58.2,30.31,North,352,0.0,0.0,59,0.00,,,0.00,Wunderground v.1.15,2013-08-18 16:00:00,
2013-08-18 12:05:00,72.9,58.7,30.31,NNW,335,1.0,1.0,61,0.00,,,0.00,Wunderground v.1.15,2013-08-18 16:05:00,
2013-08-18 12:11:00,73.9,59.6,30.31,East,98,0.0,1.0,61,0.00,,,0.00,Wunderground v.1.15,2013-08-18 16:11:00,
2013-08-18 12:17:00,75.2,59.4,30.31,SSE,149,0.0,1.0,58,0.00,,,0.00,Wunderground v.1.15,2013-08-18 16:17:00,
2013-08-18 12:23:00,76.4,59.5,30.30,SW,229,0.0,0.0,56,0.00,,,0.00,Wunderground v.1.15,2013-08-18 16:23:00,
2013-08-18 12:28:00,76.5,57.6,30.30,NNE,32,1.0,3.0,52,0.00,,,0.00,Wunderground v.1.15,2013-08-18 16:28:00,
2013-08-18 12:34:00,75.1,57.8,30.29,SW,229,1.0,3.0,55,0.00,,,0.00,Wunderground v.1.15,2013-08-18 16:34:00,
2013-08-18 12:40:00,75.3,57.0,30.29,West,269,1.0,1.0,53,0.00,,,0.00,Wunderground v.1.15,2013-08-18 16:40:00,
2013-08-18 12:45:00,75.9,57.0,30.29,SSE,166,1.0,2.0,52,0.00,,,0.00,Wunderground v.1.15,2013-08-18 16:45:00,
2013-08-18 12:51:00,77.1,57.6,30.28,ENE,65,0.0,1.0,51,0.00,,,0.00,Wunderground v.1.15,2013-08-18 16:51:00,
2013-08-18 12:57:00,78.0,57.9,30.28,SSE,168,0.0,1.0,50,0.00,,,0.00,Wunderground v.1.15,2013-08-18 16:57:00,
2013-08-18 13:03:00,78.2,57.5,30.28,ESE,103,0.0,1.0,49,0.00,,,0.00,Wunderground v.1.15,2013-08-18 17:03:00,
2013-08-18 13:08:00,78.2,55.1,30.28,ENE,57,1.0,3.0,45,0.00,,,0.00,Wunderground v.1.15,2013-08-18 17:08:00,
2013-08-18 13:14:00,78.3,55.8,30.27,SW,218,1.0,1.0,46,0.00,,,0.00,Wunderground v.1.15,2013-08-18 17:14:00,
2013-08-18 13:20:00,78.5,55.4,30.27,South,174,1.0,3.0,45,0.00,,,0.00,Wunderground v.1.15,2013-08-18 17:20:00,
2013-08-18 13:25:00,78.2,56.3,30.27,NE,50,2.0,3.0,47,0.00,,,0.00,Wunderground v.1.15,2013-08-18 17:25:00,
2013-08-18 13:31:00,77.8,54.8,30.27,NW,315,1.0,4.0,45,0.00,,,0.00,Wunderground v.1.15,2013-08-18 17:31:00,
2013-08-18 13:37:00,78.3,55.2,30.27,NW,318,1.0,4.0,45,0.00,,,0.00,Wunderground v.1.15,2013-08-18 17:37:00,
2013-08-18 13:43:00,78.2,55.7,30.27,West,267,1.0,4.0,46,0.00,,,0.00,Wunderground v.1.15,2013-08-18 17:43:00,
2013-08-18 13:48:00,77.8,56.5,30.26,NE,46,1.0,4.0,48,0.00,,,0.00,Wunderground v.1.15,2013-08-18 17:48:00,
2013-08-18 13:54:00,78.5,56.6,30.26,SE,141,0.0,4.0,47,0.00,,,0.00,Wunderground v.1.15,2013-08-18 17:54:00,
2013-08-18 13:59:00,79.4,56.8,30.26,NE,41,0.0,4.0,46,0.00,,,0.00,Wunderground v.1.15,2013-08-18 17:59:00,
2013-08-18 14:05:00,79.4,56.8,30.25,NNE,20,1.0,2.0,46,0.00,,,0.00,Wunderground v.1.15,2013-08-18 18:05:00,
2013-08-18 14:11:00,78.9,57.5,30.25,NE,46,1.0,1.0,48,0.00,,,0.00,Wunderground v.1.15,2013-08-18 18:11:00,
2013-08-18 14:17:00,79.4,58.0,30.25,SSE,150,1.0,1.0,48,0.00,,,0.00,Wunderground v.1.15,2013-08-18 18:17:00,
2013-08-18 14:22:00,79.6,57.6,30.25,SE,142,1.0,4.0,47,0.00,,,0.00,Wunderground v.1.15,2013-08-18 18:22:00,
2013-08-18 14:28:00,79.7,57.7,30.24,South,190,1.0,4.0,47,0.00,,,0.00,Wunderground v.1.15,2013-08-18 18:28:00,
2013-08-18 14:34:00,78.6,56.7,30.24,NNE,32,2.0,5.0,47,0.00,,,0.00,Wunderground v.1.15,2013-08-18 18:34:00,
2013-08-18 14:40:00,78.0,57.9,30.23,North,8,2.0,2.0,50,0.00,,,0.00,Wunderground v.1.15,2013-08-18 18:40:00,
2013-08-18 14:45:00,78.6,56.7,30.23,NNW,341,1.0,5.0,47,0.00,,,0.00,Wunderground v.1.15,2013-08-18 18:45:00,
2013-08-18 14:51:00,78.5,57.2,30.23,NNW,342,1.0,5.0,48,0.00,,,0.00,Wunderground v.1.15,2013-08-18 18:51:00,
2013-08-18 14:56:00,79.0,57.6,30.22,NE,44,1.0,5.0,48,0.00,,,0.00,Wunderground v.1.15,2013-08-18 18:56:00,
2013-08-18 15:02:00,79.6,57.6,30.22,NNE,20,0.0,1.0,47,0.00,,,0.00,Wunderground v.1.15,2013-08-18 19:02:00,
2013-08-18 15:08:00,80.2,58.7,30.22,NNE,18,0.0,2.0,48,0.00,,,0.00,Wunderground v.1.15,2013-08-18 19:08:00,
2013-08-18 15:14:00,79.9,57.9,30.22,NNW,340,1.0,1.0,47,0.00,,,0.00,Wunderground v.1.15,2013-08-18 19:14:00,
2013-08-18 15:19:00,79.7,58.3,30.22,WSW,248,1.0,3.0,48,0.00,,,0.00,Wunderground v.1.15,2013-08-18 19:19:00,
2013-08-18 15:25:00,79.5,56.9,30.22,NE,53,1.0,3.0,46,0.00,,,0.00,Wunderground v.1.15,2013-08-18 19:25:00,
2013-08-18 15:31:00,79.4,57.4,30.21,North,351,1.0,4.0,47,0.00,,,0.00,Wunderground v.1.15,2013-08-18 19:31:00,
2013-08-18 15:37:00,79.4,56.2,30.21,WNW,283,1.0,4.0,45,0.00,,,0.00,Wunderground v.1.15,2013-08-18 19:37:00,
2013-08-18 15:43:00,79.5,56.9,30.21,West,264,1.0,4.0,46,0.00,,,0.00,Wunderground v.1.15,2013-08-18 19:43:00,
2013-08-18 15:48:00,79.3,56.1,30.21,NNW,340,1.0,4.0,45,0.00,,,0.00,Wunderground v.1.15,2013-08-18 19:48:00,
2013-08-18 15:54:00,79.5,58.1,30.21,West,281,1.0,4.0,48,0.00,,,0.00,Wunderground v.1.15,2013-08-18 19:54:00,
2013-08-18 15:59:00,80.1,56.8,30.21,NNE,22,0.0,4.0,45,0.00,,,0.00,Wunderground v.1.15,2013-08-18 19:59:00,
2013-08-18 16:05:00,80.1,55.6,30.20,South,184,1.0,3.0,43,0.00,,,0.00,Wunderground v.1.15,2013-08-18 20:05:00,
2013-08-18 16:11:00,80.4,53.9,30.20,West,271,1.0,1.0,40,0.00,,,0.00,Wunderground v.1.15,2013-08-18 20:11:00,
2013-08-18 16:16:00,80.2,54.4,30.20,SW,219,1.0,4.0,41,0.00,,,0.00,Wunderground v.1.15,2013-08-18 20:16:00,
2013-08-18 16:22:00,79.8,56.6,30.20,South,187,3.0,3.0,45,0.00,,,0.00,Wunderground v.1.15,2013-08-18 20:22:00,
2013-08-18 16:27:00,79.9,56.7,30.20,WSW,246,2.0,3.0,45,0.00,,,0.00,Wunderground v.1.15,2013-08-18 20:27:00,
2013-08-18 16:32:00,79.8,56.6,30.20,South,173,1.0,5.0,45,0.00,,,0.00,Wunderground v.1.15,2013-08-18 20:32:00,
2013-08-18 16:38:00,79.4,57.4,30.20,WSW,245,1.0,5.0,47,0.00,,,0.00,Wunderground v.1.15,2013-08-18 20:38:00,
2013-08-18 16:44:00,79.2,58.4,30.20,WSW,257,1.0,5.0,49,0.00,,,0.00,Wunderground v.1.15,2013-08-18 20:44:00,
2013-08-18 16:50:00,79.3,57.3,30.20,WNW,291,0.0,5.0,47,0.00,,,0.00,Wunderground v.1.15,2013-08-18 20:50:00,
2013-08-18 16:55:00,79.3,56.1,30.20,NW,319,0.0,5.0,45,0.00,,,0.00,Wunderground v.1.15,2013-08-18 20:55:00,
2013-08-18 17:00:00,79.0,58.2,30.19,North,355,0.0,3.0,49,0.00,,,0.00,Wunderground v.1.15,2013-08-18 21:00:00,
2013-08-18 17:05:00,78.8,56.9,30.19,WNW,283,1.0,3.0,47,0.00,,,0.00,Wunderground v.1.15,2013-08-18 21:05:00,
2013-08-18 17:11:00,78.2,54.5,30.19,NW,308,1.0,2.0,44,0.00,,,0.00,Wunderground v.1.15,2013-08-18 21:11:00,
2013-08-18 17:17:00,78.0,54.9,30.19,West,262,1.0,2.0,45,0.00,,,0.00,Wunderground v.1.15,2013-08-18 21:17:00,
2013-08-18 17:23:00,77.5,53.9,30.19,NNW,342,1.0,3.0,44,0.00,,,0.00,Wunderground v.1.15,2013-08-18 21:23:00,
2013-08-18 17:29:00,77.5,55.1,30.19,NW,309,1.0,3.0,46,0.00,,,0.00,Wunderground v.1.15,2013-08-18 21:29:00,
2013-08-18 17:34:00,77.6,55.2,30.18,West,274,0.0,6.0,46,0.00,,,0.00,Wunderground v.1.15,2013-08-18 21:34:00,
2013-08-18 17:40:00,77.0,56.9,30.18,NNW,335,0.0,6.0,50,0.00,,,0.00,Wunderground v.1.15,2013-08-18 21:40:00,
2013-08-18 17:45:00,76.7,59.3,30.18,NNW,336,0.0,6.0,55,0.00,,,0.00,Wunderground v.1.15,2013-08-18 21:45:00,
2013-08-18 17:51:00,76.1,59.3,30.18,NNW,337,0.0,6.0,56,0.00,,,0.00,Wunderground v.1.15,2013-08-18 21:51:00,
2013-08-18 17:57:00,75.5,59.7,30.18,NNW,338,0.0,6.0,58,0.00,,,0.00,Wunderground v.1.15,2013-08-18 21:57:00,
2013-08-18 18:02:00,74.8,60.0,30.17,NNW,337,0.0,0.0,60,0.00,,,0.00,Wunderground v.1.15,2013-08-18 22:02:00,
2013-08-18 18:08:00,74.9,60.1,30.18,NNW,338,0.0,0.0,60,0.00,,,0.00,Wunderground v.1.15,2013-08-18 22:08:00,
2013-08-18 18:14:00,74.9,59.6,30.17,NNW,337,0.0,0.0,59,0.00,,,0.00,Wunderground v.1.15,2013-08-18 22:14:00,
2013-08-18 18:20:00,75.9,61.0,30.17,NNW,338,0.0,0.0,60,0.00,,,0.00,Wunderground v.1.15,2013-08-18 22:20:00,
2013-08-18 18:25:00,77.1,60.7,30.17,NNW,337,0.0,0.0,57,0.00,,,0.00,Wunderground v.1.15,2013-08-18 22:25:00,
2013-08-18 18:31:00,78.0,62.0,30.17,NNW,337,0.0,4.0,58,0.00,,,0.00,Wunderground v.1.15,2013-08-18 22:31:00,
2013-08-18 18:37:00,78.6,62.1,30.17,NNW,337,0.0,4.0,57,0.00,,,0.00,Wunderground v.1.15,2013-08-18 22:37:00,
2013-08-18 18:42:00,79.3,62.7,30.17,NNW,337,0.0,4.0,57,0.00,,,0.00,Wunderground v.1.15,2013-08-18 22:42:00,
2013-08-18 18:48:00,79.8,62.2,30.17,NNW,338,0.0,4.0,55,0.00,,,0.00,Wunderground v.1.15,2013-08-18 22:48:00,
2013-08-18 18:54:00,80.1,62.0,30.17,NNW,337,0.0,4.0,54,0.00,,,0.00,Wunderground v.1.15,2013-08-18 22:54:00,
2013-08-18 19:00:00,79.9,62.8,30.17,NNW,337,0.0,0.0,56,0.00,,,0.00,Wunderground v.1.15,2013-08-18 23:00:00,
2013-08-18 19:05:00,79.2,62.1,30.16,NNW,338,0.0,0.0,56,0.00,,,0.00,Wunderground v.1.15,2013-08-18 23:05:00,
2013-08-18 19:11:00,77.1,62.1,30.16,NNW,337,0.0,0.0,60,0.00,,,0.00,Wunderground v.1.15,2013-08-18 23:11:00,
2013-08-18 19:17:00,75.2,62.6,30.17,NNW,337,0.0,0.0,65,0.00,,,0.00,Wunderground v.1.15,2013-08-18 23:17:00,
2013-08-18 19:22:00,74.2,62.5,30.17,NNW,338,0.0,0.0,67,0.00,,,0.00,Wunderground v.1.15,2013-08-18 23:22:00,
2013-08-18 19:28:00,72.7,62.8,30.16,NNW,337,0.0,0.0,71,0.00,,,0.00,Wunderground v.1.15,2013-08-18 23:28:00,
2013-08-18 19:34:00,71.3,62.6,30.17,NNW,337,0.0,1.0,74,0.00,,,0.00,Wunderground v.1.15,2013-08-18 23:34:00,
2013-08-18 19:40:00,70.1,62.2,30.17,NNW,337,0.0,1.0,76,0.00,,,0.00,Wunderground v.1.15,2013-08-18 23:40:00,
2013-08-18 19:46:00,69.4,61.9,30.17,NNW,337,0.0,1.0,77,0.00,,,0.00,Wunderground v.1.15,2013-08-18 23:46:00,
2013-08-18 19:51:00,68.7,61.6,30.17,NNW,337,0.0,1.0,78,0.00,,,0.00,Wunderground v.1.15,2013-08-18 23:51:00,
2013-08-18 19:57:00,68.1,61.0,30.17,NNW,337,0.0,1.0,78,0.00,,,0.00,Wunderground v.1.15,2013-08-18 23:57:00,
2013-08-18 20:03:00,67.5,61.1,30.17,NNW,338,0.0,0.0,80,0.00,,,0.00,Wunderground v.1.15,2013-08-19 00:03:00,
2013-08-18 20:09:00,66.8,61.1,30.17,NNW,338,0.0,0.0,82,0.00,,,0.00,Wunderground v.1.15,2013-08-19 00:09:00,
2013-08-18 20:15:00,66.1,60.8,30.17,NNW,338,0.0,0.0,83,0.00,,,0.00,Wunderground v.1.15,2013-08-19 00:15:00,
2013-08-18 20:20:00,65.5,60.9,30.16,NNW,337,0.0,0.0,85,0.00,,,0.00,Wunderground v.1.15,2013-08-19 00:20:00,
2013-08-18 20:26:00,64.9,60.9,30.16,NNW,337,0.0,0.0,87,0.00,,,0.00,Wunderground v.1.15,2013-08-19 00:26:00,
2013-08-18 20:32:00,64.4,60.8,30.16,NNW,338,0.0,1.0,88,0.00,,,0.00,Wunderground v.1.15,2013-08-19 00:32:00,
2013-08-18 20:38:00,64.0,60.7,30.17,NNW,337,0.0,1.0,89,0.00,,,0.00,Wunderground v.1.15,2013-08-19 00:38:00,
2013-08-18 20:43:00,63.7,60.4,30.17,NNW,337,0.0,1.0,89,0.00,,,0.00,Wunderground v.1.15,2013-08-19 00:43:00,
2013-08-18 20:49:00,63.2,59.9,30.17,NNW,337,0.0,1.0,89,0.00,,,0.00,Wunderground v.1.15,2013-08-19 00:49:00,
2013-08-18 20:55:00,62.9,59.9,30.17,NNW,337,0.0,1.0,90,0.00,,,0.00,Wunderground v.1.15,2013-08-19 00:55:00,
2013-08-18 21:00:00,62.6,59.6,30.17,NNW,341,0.0,0.0,90,0.00,,,0.00,Wunderground v.1.15,2013-08-19 01:00:00,
2013-08-18 21:05:00,62.4,59.7,30.17,NNW,340,0.0,0.0,91,0.00,,,0.00,Wunderground v.1.15,2013-08-19 01:05:00,
2013-08-18 21:11:00,62.1,59.4,30.17,NNW,341,0.0,0.0,91,0.00,,,0.00,Wunderground v.1.15,2013-08-19 01:11:00,
2013-08-18 21:16:00,61.8,59.5,30.17,NNW,342,0.0,0.0,92,0.00,,,0.00,Wunderground v.1.15,2013-08-19 01:16:00,
2013-08-18 21:22:00,61.6,59.3,30.17,NNW,340,0.0,0.0,92,0.00,,,0.00,Wunderground v.1.15,2013-08-19 01:22:00,
2013-08-18 21:28:00,61.3,59.0,30.16,NNW,340,0.0,0.0,92,0.00,,,0.00,Wunderground v.1.15,2013-08-19 01:28:00,
2013-08-18 21:33:00,61.2,58.9,30.17,NNW,340,0.0,0.0,92,0.00,,,0.00,Wunderground v.1.15,2013-08-19 01:33:00,
2013-08-18 21:39:00,60.9,58.9,30.16,NNW,340,0.0,1.0,93,0.00,,,0.00,Wunderground v.1.15,2013-08-19 01:39:00,
2013-08-18 21:45:00,60.6,58.6,30.16,NNW,330,0.0,1.0,93,0.00,,,0.00,Wunderground v.1.15,2013-08-19 01:45:00,
2013-08-18 21:51:00,60.4,58.7,30.16,NNW,329,0.0,0.0,94,0.00,,,0.00,Wunderground v.1.15,2013-08-19 01:51:00,
2013-08-18 21:57:00,60.2,58.5,30.16,North,5,0.0,0.0,94,0.00,,,0.00,Wunderground v.1.15,2013-08-19 01:57:00,
2013-08-18 22:02:00,60.0,58.3,30.16,North,4,0.0,0.0,94,0.00,,,0.00,Wunderground v.1.15,2013-08-19 02:02:00,
2013-08-18 22:08:00,59.8,58.1,30.16,North,5,0.0,0.0,94,0.00,,,0.00,Wunderground v.1.15,2013-08-19 02:08:00,
2013-08-18 22:14:00,59.5,57.8,30.16,NNE,12,0.0,1.0,94,0.00,,,0.00,Wunderground v.1.15,2013-08-19 02:14:00,
2013-08-18 22:20:00,59.2,57.5,30.16,NNW,347,0.0,0.0,94,0.00,,,0.00,Wunderground v.1.15,2013-08-19 02:20:00,
2013-08-18 22:25:00,59.1,57.7,30.16,NNW,347,0.0,0.0,95,0.00,,,0.00,Wunderground v.1.15,2013-08-19 02:25:00,
2013-08-18 22:31:00,58.9,57.5,30.16,NNW,348,0.0,1.0,95,0.00,,,0.00,Wunderground v.1.15,2013-08-19 02:31:00,
2013-08-18 22:37:00,58.7,57.3,30.16,NNW,327,0.0,1.0,95,0.00,,,0.00,Wunderground v.1.15,2013-08-19 02:37:00,
2013-08-18 22:42:00,58.6,57.2,30.15,NW,324,0.0,1.0,95,0.00,,,0.00,Wunderground v.1.15,2013-08-19 02:42:00,
2013-08-18 22:48:00,58.4,57.0,30.15,NW,325,0.0,1.0,95,0.00,,,0.00,Wunderground v.1.15,2013-08-19 02:48:00,
2013-08-18 22:54:00,58.2,56.8,30.15,NNW,327,0.0,1.0,95,0.00,,,0.00,Wunderground v.1.15,2013-08-19 02:54:00,
2013-08-18 22:59:00,58.0,56.6,30.16,NNW,333,0.0,1.0,95,0.00,,,0.00,Wunderground v.1.15,2013-08-19 02:59:00,
2013-08-18 23:05:00,57.8,56.4,30.16,NNW,333,0.0,1.0,95,0.00,,,0.00,Wunderground v.1.15,2013-08-19 03:05:00,
2013-08-18 23:11:00,57.6,56.2,30.16,NNW,331,0.0,0.0,95,0.00,,,0.00,Wunderground v.1.15,2013-08-19 03:11:00,
2013-08-18 23:17:00,57.4,56.3,30.16,NNW,332,0.0,0.0,96,0.00,,,0.00,Wunderground v.1.15,2013-08-19 03:17:00,
2013-08-18 23:22:00,57.3,56.2,30.16,NNW,331,0.0,0.0,96,0.00,,,0.00,Wunderground v.1.15,2013-08-19 03:22:00,
2013-08-18 23:28:00,57.1,56.0,30.16,NW,315,0.0,0.0,96,0.00,,,0.00,Wunderground v.1.15,2013-08-19 03:28:00,
2013-08-18 23:34:00,56.8,55.7,30.16,NW,325,0.0,1.0,96,0.00,,,0.00,Wunderground v.1.15,2013-08-19 03:34:00,
2013-08-18 23:40:00,56.6,55.5,30.16,NW,324,0.0,1.0,96,0.00,,,0.00,Wunderground v.1.15,2013-08-19 03:40:00,
2013-08-18 23:45:00,56.4,55.3,30.16,NW,324,0.0,1.0,96,0.00,,,0.00,Wunderground v.1.15,2013-08-19 03:45:00,
2013-08-18 23:51:00,56.4,55.6,30.16,NW,325,0.0,1.0,97,0.00,,,0.00,Wunderground v.1.15,2013-08-19 03:51:00,
2013-08-18 23:56:00,56.2,55.1,30.16,NW,324,0.0,1.0,96,0.00,,,0.00,Wunderground v.1.15,2013-08-19 03:56:00,